Location: O'Brien
(30.0517°N, 82.9900°W)
Time: 12:30:54
(UTC-05:00)

ISS - Visible Passes

Search period start: 19 November 2019 00:00
Search period end: 29 November 2019 00:00
Orbit: 412 x 421 km, 51.6° (Epoch: 19 November)

Date Brightness Start Highest point End Pass type
(mag) Time Alt. Az. Time Alt. Az. Time Alt. Az.
19 Nov -2.3 19:24:22 10° WSW 19:26:54 36° WNW 19:26:54 36° WNW visible
20 Nov -3.8 18:35:49 10° SW 18:39:08 85° NW 18:40:56 25° NE visible
21 Nov -1.1 19:25:47 10° WNW 19:27:43 14° NW 19:27:48 14° NNW visible
22 Nov -1.8 18:36:24 10° W 18:39:10 24° NW 18:41:38 12° NNE visible
